Time,TemperatureF,DewpointF,PressureIn,WindDirection,WindDirectionDegrees,WindSpeedMPH,WindSpeedGustMPH,Humidity,HourlyPrecipIn,Conditions,Clouds,dailyrainin,SoftwareType,DateUTC
2013-10-29 00:00:00,37.0,-99.9,-100.00,ESE,106,9.0,12.0,-999,-99.99,,,-99.99,,2013-10-29 06:00:00,
2013-10-29 00:53:00,37.0,-99.9,-100.00,ESE,106,9.0,12.0,-999,-99.99,,,-99.99,,2013-10-29 06:53:00,
2013-10-29 01:00:00,37.0,-99.9,-100.00,East,96,8.0,11.0,-999,-99.99,,,-99.99,,2013-10-29 07:00:00,
2013-10-29 01:55:00,37.0,-99.9,-100.00,East,96,8.0,11.0,-999,-99.99,,,-99.99,,2013-10-29 07:55:00,
2013-10-29 02:00:00,37.0,-99.9,-100.00,ESE,102,7.0,13.0,-999,-99.99,,,-99.99,,2013-10-29 08:00:00,
2013-10-29 02:52:00,37.0,-99.9,-100.00,ESE,102,7.0,13.0,-999,-99.99,,,-99.99,,2013-10-29 08:52:00,
2013-10-29 03:00:00,37.0,-99.9,-100.00,East,93,6.0,8.0,-999,-99.99,,,-99.99,,2013-10-29 09:00:00,
2013-10-29 03:54:00,37.0,-99.9,-100.00,East,93,6.0,8.0,-999,-99.99,,,-99.99,,2013-10-29 09:54:00,
2013-10-29 04:00:00,37.0,-99.9,-100.00,East,87,10.0,12.0,-999,-99.99,,,-99.99,,2013-10-29 10:00:00,
2013-10-29 04:54:00,37.0,-99.9,-100.00,East,87,10.0,12.0,-999,-99.99,,,-99.99,,2013-10-29 10:54:00,
2013-10-29 05:00:00,37.0,-99.9,-100.00,East,87,10.0,11.0,-999,-99.99,,,-99.99,,2013-10-29 11:00:00,
2013-10-29 05:52:00,37.0,-99.9,-100.00,East,87,10.0,11.0,-999,-99.99,,,-99.99,,2013-10-29 11:52:00,
2013-10-29 06:00:00,37.0,-99.9,-100.00,East,79,7.0,11.0,-999,-99.99,,,-99.99,,2013-10-29 12:00:00,
2013-10-29 06:52:00,37.0,-99.9,-100.00,East,79,7.0,11.0,-999,-99.99,,,-99.99,,2013-10-29 12:52:00,
2013-10-29 07:00:00,37.0,-99.9,-100.00,ENE,78,8.0,11.0,-999,-99.99,,,-99.99,,2013-10-29 13:00:00,
2013-10-29 07:53:00,37.0,-99.9,-100.00,ENE,78,8.0,11.0,-999,-99.99,,,-99.99,,2013-10-29 13:53:00,
2013-10-29 08:00:00,37.0,-99.9,-100.00,East,87,8.0,12.0,-999,-99.99,,,-99.99,,2013-10-29 14:00:00,
2013-10-29 08:52:00,37.0,-99.9,-100.00,East,87,8.0,12.0,-999,-99.99,,,-99.99,,2013-10-29 14:52:00,
2013-10-29 09:00:00,37.0,-99.9,-100.00,East,93,4.0,5.0,-999,-99.99,,,-99.99,,2013-10-29 15:00:00,
2013-10-29 09:54:00,37.0,-99.9,-100.00,East,93,4.0,5.0,-999,-99.99,,,-99.99,,2013-10-29 15:54:00,
2013-10-29 10:00:00,37.0,-99.9,-100.00,NE,52,6.0,9.0,-999,-99.99,,,-99.99,,2013-10-29 16:00:00,
2013-10-29 10:53:00,37.0,-99.9,-100.00,NE,52,6.0,9.0,-999,-99.99,,,-99.99,,2013-10-29 16:53:00,
2013-10-29 11:00:00,37.0,-99.9,-100.00,NE,56,7.0,8.0,-999,-99.99,,,-99.99,,2013-10-29 17:00:00,
2013-10-29 11:52:00,37.0,-99.9,-100.00,NE,56,7.0,8.0,-999,-99.99,,,-99.99,,2013-10-29 17:52:00,
2013-10-29 12:00:00,39.0,-99.9,-100.00,East,82,6.0,9.0,-999,-99.99,,,-99.99,,2013-10-29 18:00:00,
2013-10-29 12:52:00,39.0,-99.9,-100.00,East,82,6.0,9.0,-999,-99.99,,,-99.99,,2013-10-29 18:52:00,
2013-10-29 13:00:00,39.0,-99.9,-100.00,SE,127,3.0,8.0,-999,-99.99,,,-99.99,,2013-10-29 19:00:00,
2013-10-29 13:53:00,39.0,-99.9,-100.00,SE,127,3.0,8.0,-999,-99.99,,,-99.99,,2013-10-29 19:53:00,
2013-10-29 14:00:00,39.0,-99.9,-100.00,NE,45,3.0,5.0,-999,-99.99,,,-99.99,,2013-10-29 20:00:00,
2013-10-29 14:52:00,39.0,-99.9,-100.00,NE,45,3.0,5.0,-999,-99.99,,,-99.99,,2013-10-29 20:52:00,
2013-10-29 15:00:00,41.0,-99.9,-100.00,North,0,5.0,5.0,-999,-99.99,,,-99.99,,2013-10-29 21:00:00,
2013-10-29 15:54:00,41.0,-99.9,-100.00,North,0,5.0,5.0,-999,-99.99,,,-99.99,,2013-10-29 21:54:00,
2013-10-29 16:00:00,41.0,-99.9,-100.00,NNE,28,9.0,11.0,-999,-99.99,,,-99.99,,2013-10-29 22:00:00,
2013-10-29 16:53:00,41.0,-99.9,-100.00,NNE,28,9.0,11.0,-999,-99.99,,,-99.99,,2013-10-29 22:53:00,
2013-10-29 17:00:00,41.0,-99.9,-100.00,NNE,21,4.0,8.0,-999,-99.99,,,-99.99,,2013-10-29 23:00:00,
2013-10-29 17:53:00,41.0,-99.9,-100.00,NNE,21,4.0,8.0,-999,-99.99,,,-99.99,,2013-10-29 23:53:00,
2013-10-29 18:00:00,41.0,-99.9,-100.00,NE,53,5.0,6.0,-999,-99.99,,,-99.99,,2013-10-30 00:00:00,
2013-10-29 18:52:00,41.0,-99.9,-100.00,NE,53,5.0,6.0,-999,-99.99,,,-99.99,,2013-10-30 00:52:00,
2013-10-29 19:00:00,41.0,-99.9,-100.00,ENE,77,2.0,4.0,-999,-99.99,,,-99.99,,2013-10-30 01:00:00,
2013-10-29 19:52:00,41.0,-99.9,-100.00,ENE,77,2.0,4.0,-999,-99.99,,,-99.99,,2013-10-30 01:52:00,
2013-10-29 20:00:00,41.0,-99.9,-100.00,ENE,67,3.0,5.0,-999,-99.99,,,-99.99,,2013-10-30 02:00:00,
2013-10-29 20:52:00,41.0,-99.9,-100.00,ENE,67,3.0,5.0,-999,-99.99,,,-99.99,,2013-10-30 02:52:00,
2013-10-29 21:00:00,39.0,-99.9,-100.00,NE,54,4.0,21.0,-999,-99.99,,,-99.99,,2013-10-30 03:00:00,
2013-10-29 21:54:00,39.0,-99.9,-100.00,NE,54,4.0,21.0,-999,-99.99,,,-99.99,,2013-10-30 03:54:00,
2013-10-29 22:00:00,39.0,-99.9,-100.00,ENE,69,3.0,4.0,-999,-99.99,,,-99.99,,2013-10-30 04:00:00,
2013-10-29 22:54:00,39.0,-99.9,-100.00,ENE,69,3.0,4.0,-999,-99.99,,,-99.99,,2013-10-30 04:54:00,
2013-10-29 23:00:00,39.0,-99.9,-100.00,NE,40,7.0,9.0,-999,-99.99,,,-99.99,,2013-10-30 05:00:00,
2013-10-29 23:53:00,39.0,-99.9,-100.00,NE,40,7.0,9.0,-999,-99.99,,,-99.99,,2013-10-30 05:53:00,